Regional Weather Roundup
Issued by NWS

Home | Current Version | Previous Version | Graphics & Text | Print | Product List | Glossary Off
Versions: 1 2 3 4 5 6 7 8 9 10 11 12 13 14 15 16 17 18 19 20 21 22 23 24 25 26 27 28 29 30 31 32 33 34 35 36 37 38 39 40 41 42 43 44 45 46 47 48 49 50

000
ASUS43 KDMX 292008
RWRIA

WEATHER ROUNDUP FOR IOWA
NATIONAL WEATHER SERVICE DES MOINES IA
300 PM CDT MON AUG 29 2016

NOTE: "FAIR" INDICATES FEW OR NO CLOUDS BELOW 12,000 FEET WITH NO
SIGNIFICANT WEATHER AND/OR OBSTRUCTIONS TO VISIBILITY.

* - THESE STATIONS ARE NOT NWS STATIONS...THUS NOT UNDER NWS
QUALITY CONTROL.  THEY ALSO DO NOT REPORT WEATHER SUCH
AS PRECIPITATION OR FOG.

IAZ001>003-012>014-020>022-031>034-043>046-292100-
   NORTHWEST IOWA

CITY           SKY/WX    TMP DP  RH WIND       PRES   REMARKS
CARROLL *      MOSUNNY   82  72  69 NE6       30.18F HX  87
CHEROKEE *     MOSUNNY   82  72  70 CALM      30.18F HX  87
DENISON *      MOSUNNY   81  72  74 CALM      30.16F HX  84
LE MARS *      PTSUNNY   84  70  61 S7        30.18F HX  88
ORANGE CITY *  PTSUNNY   81  72  74 SW3       30.18F HX  84
SHELDON *      CLOUDY    81  70  69 SW9       30.17F HX  84
SIOUX CITY     PTSUNNY   80  71  74 E3        30.17F HX  84
SPENCER        MOSUNNY   83  69  62 SE8       30.19F HX  86
STORM LAKE *   PTSUNNY   82  72  69 VRB3      30.20F HX  87
$$

IAZ055>058-069>071-079>083-090>094-292100-
   SOUTHWEST IOWA

CITY           SKY/WX    TMP DP  RH WIND       PRES   REMARKS
ATLANTIC *     SUNNY     86  72  62 E5        30.16F HX  92
AUDUBON *      SUNNY     84  73  70 SE5       30.18F HX  91
CLARINDA *       N/A     81  70  69 MISG      30.18S HAZE    HX  84
COUNCIL BLFS * MOSUNNY   86  75  70 SE5       30.15F HX  95
CRESTON *        N/A     75  70  83 VRB6G20   30.20S HAZE
HARLAN  *      MOSUNNY   86  72  62 CALM      30.19F HX  92
LAMONI         MOSUNNY   87  73  62 S7        30.16F HX  94
RED OAK *      MOSUNNY   88  73  62 S5        30.15F HX  96
SHENANDOAH *   PTSUNNY   86 -27   1 CALM      30.14F HX  81
$$

IAZ047>049-059>061-072>074-084-292100-
   CENTRAL IOWA

CITY           SKY/WX    TMP DP  RH WIND       PRES   REMARKS
AMES           PTSUNNY   84  75  74 E5        30.18F HX  92
ANKENY *         N/A    N/A N/A N/A MISG        N/A
BOONE *        MOSUNNY   82  72  69 CALM      30.18F HX  87
CHARITON *     HVY RAIN  73  72  94 MISG      30.20R
DES MOINES     PTSUNNY   84  73  69 SE9       30.16F THUNDER HX  90
GRINNELL*      MOSUNNY   83  70  64 SE5       30.19F HX  87
KNOXVILLE *    CLOUDY    77  70  78 S8G16     30.16F
MARSHALLTOWN   CLOUDY    80  74  81 E3        30.20R HX  85
NEWTON *       SUNNY     84  70  61 VRB5      30.17F HX  88
PELLA *        MOSUNNY   85  71  62 S10       30.18F HX  90
PERRY *          N/A     85  76  74 E5        30.17F HX  94
$$

IAZ004>006-015-016-023>025-035-036-292100-
   NORTH CENTRAL IOWA

CITY           SKY/WX    TMP DP  RH WIND       PRES   REMARKS
ALGONA *       MOSUNNY   77  66  69 SE10      30.21S
ESTHERVILLE    MOSUNNY   80  72  76 S12       30.19F HX  84
FORT DODGE *   CLOUDY    77  68  73 NW5       30.21R THUNDER
MASON CITY     LGT RAIN  70  69  97 N5        30.23F
FOREST CITY *    N/A    N/A N/A N/A MISG        N/A
WEBSTER CITY * MOSUNNY   82  73  74 NE12      30.18F HX  88
IOWA FALLS *     N/A     84  73  69 SE6       30.21F HX  90
$$

IAZ007>011-017>019-026>030-037>042-050>054-066-292100-
   NORTHEAST IOWA

CITY           SKY/WX    TMP DP  RH WIND       PRES   REMARKS
CEDAR RAPIDS   MOSUNNY   85  74  69 VRB5      30.18F HX  92
CHARLES CITY * CLOUDY    77  75  94 CALM      30.21F
CLINTON *      MOSUNNY   86  74  67 CALM      30.19F HX  94
DECORAH *      CLOUDY    79  73  83 VRB5      30.19F HX  82
DUBUQUE        CLOUDY    80  72  76 CALM      30.21F HX  84
MONTICELLO *   CLOUDY    73  70  88 SE6G16    30.19F
OELWEIN *      CLOUDY    81  73  78 CALM      30.21F HX  85
WATERLOO       PTSUNNY   81  73  76 E3        30.19S HX  86
$$

IAZ064-065-067-068-078-292100-
   EAST CENTRAL IOWA

CITY           SKY/WX    TMP DP  RH WIND       PRES   REMARKS
DAVENPORT      CLOUDY    75  69  81 S14       30.20S THUNDER
IOWA CITY      MOSUNNY   85  73  67 VRB5      30.18F HX  91
MT. PLEASANT * MOSUNNY   93  72  49 E3        30.15F HX 100
QUAD CITIES    LGT RAIN  73  68  84 S10       30.19S
$$

IAZ062-063-075>077-085>089-095>099-292100-
   SOUTHEAST IOWA

CITY           SKY/WX    TMP DP  RH WIND       PRES   REMARKS
BURLINGTON     SUNNY     89  73  59 S7        30.15F HX  97
FAIRFIELD *    MOSUNNY   82  73  74 NE6       30.15F HX  88
FORT MADISON *   N/A     84  72  65 S8        30.17F HX  89
KEOKUK *       CLOUDY    86  72  62 SE5       30.15F HX  92
OSKALOOSA *      N/A     76  72  89 W6        30.17F
CENTERVILLE *    N/A     82  72  69 N9        30.18F HX  87
OTTUMWA        CLOUDY    79  68  69 W8        30.16F HX  81
WASHINGTON *   PTSUNNY   82  75  78 NW3       30.17F HX  89
$$

ABBREVIATIONS USED IN REMARKS
   TC - TEMPERATURES IN CELSIUS
  WCI - WIND CHILL INDEX
   HX - HEAT INDEX
  VSB - VISIBILITY
$$




USA.gov is the U.S. government's official web portal to all federal, state and local government web resources and services.